Temp
-6 -6 -6 -6 -5 -5 -6 -6 -6 -6 -6 -6 -6 -6 -6 -6 -6 -6 -6 -6 -6 -6 -6 -7 -7 -7 -7 -7 -7 -7 -7 -7 -7 -7 -7 -7 -7 -7 -8 -8 -7 -7
-6 -6 -6 -6 -6 -5 -5 -5 -6 -6 -6 -6 -6 -6 -6 -6 -6 -6 -6 -6 -6 -6 -6 -7 -7 -7 -7 -7 -7 -7 -7 -7 -7 -7 -7 -7 -7 -7 -7 -8 -8 -7
-5 -6 -6 -6 -6 -6 -5 -5 -6 -6 -6 -6 -6 -6 -6 -6 -6 -6 -6 -6 -6 -6 -6 -6 -6 -7 -7 -7 -7 -7 -7 -7 -7 -7 -7 -7 -7 -7 -7 -8 -8 -8
-5 -5 -5 -6 -6 -6 -6 -6 -5 -6 -6 -6 -6 -6 -6 -6 -6 -6 -6 -6 -6 -6 -6 -6 -6 -6 -6 -7 -7 -7 -7 -7 -7 -7 -7 -7 -7 -7 -7 -7 -7 -7
-5 -5 -5 -5 -5 -6 -6 -6 -6 -6 -6 -6 -6 -6 -6 -6 -6 -6 -6 -6 -6 -6 -6 -6 -6 -6 -6 -6 -7 -7 -7 -7 -7 -7 -7 -7 -7 -7 -7 -7 -7 -7
-5 -5 -5 -5 -5 -5 -6 -6 -6 -6 -6 -6 -6 -6 -6 -6 -6 -6 -6 -6 -6 -6 -6 -6 -6 -6 -6 -6 -7 -7 -7 -7 -7 -7 -7 -7 -7 -7 -7 -7 -7 -7
-5 -5 -5 -5 -5 -5 -5 -6 -6 -6 -6 -6 -6 -6 -6 -6 -6 -6 -6 -6 -6 -6 -6 -6 -6 -6 -6 -6 -6 -7 -7 -7 -7 -7 -7 -7 -7 -7 -7 -7 -7 -7
-6 -6 -6 -6 -6 -6 -5 -5 -6 -6 -6 -6 -6 -6 -6 -6 -6 -6 -6 -6 -6 -6 -6 -6 -6 -6 -6 -6 -6 -6 -7 -7 -7 -7 -7 -7 -7 -7 -7 -7 -7 -7
-6 -6 -6 -6 -6 -6 -6 -6 -6 -6 -6 -6 -6 -6 -6 -6 -6 -6 -6 -6 -6 -6 -6 -6 -6 -6 -6 -6 -6 -6 -6 -6 -6 -6 -7 -7 -7 -7 -7 -7 -7 -7
-6 -6 -6 -6 -6 -6 -6 -6 -6 -6 -6 -6 -6 -6 -6 -6 -6 -6 -6 -6 -6 -6 -6 -6 -6 -6 -6 -6 -6 -6 -6 -6 -6 -6 -6 -6 -6 -6 -6 -7 -7 -7
-6 -6 -6 -6 -6 -6 -6 -6 -6 -6 -6 -6 -6 -6 -6 -6 -6 -6 -6 -6 -6 -6 -6 -6 -6 -6 -6 -6 -6 -6 -6 -6 -6 -6 -6 -6 -6 -6 -6 -6 -6 -6
-6 -6 -6 -6 -6 -6 -6 -6 -6 -6 -6 -6 -6 -6 -6 -6 -6 -6 -6 -6 -6 -6 -6 -6 -6 -6 -6 -6 -6 -6 -6 -6 -6 -6 -6 -6 -6 -6 -6 -6 -6 -6
-6 -6 -6 -6 -6 -6 -6 -6 -6 -6 -6 -6 -6 -6 -6 -6 -6 -6 -6 -6 -6 -6 -6 -6 -6 -6 -6 -6 -6 -6 -6 -6 -6 -6 -6 -6 -6 -6 -6 -6 -6 -6
-6 -6 -6 -6 -6 -6 -6 -6 -6 -6 -6 -6 -6 -6 -6 -6 -6 -6 -6 -6 -6 -6 -6 -6 -6 -6 -6 -6 -6 -6 -6 -6 -6 -6 -6 -6 -6 -6 -6 -6 -6 -5
-6 -6 -6 -7 -7 -7 -6 -6 -6 -6 -6 -6 -6 -6 -6 -6 -6 -6 -6 -6 -6 -6 -6 -6 -7 -7 -7 -6 -6 -6 -6 -6 -6 -6 -6 -6 -6 -6 -6 -6 -6 -6
-7 -7 -7 -7 -7 -7 -7 -6 -6 -6 -6 -6 -6 -6 -6 -6 -6 -6 -6 -6 -6 -6 -6 -6 -6 -6 -6 -6 -6 -6 -6 -5 -5 -5 -5 -6 -6 -6 -6 -6 -6 -6
-7 -7 -7 -7 -7 -7 -7 -7 -6 -6 -6 -6 -6 -6 -6 -6 -6 -6 -6 -6 -6 -6 -6 -6 -6 -6 -6 -6 -6 -6 -6 -5 -5 -5 -5 -6 -6 -6 -6 -6 -6 -6
-7 -7 -7 -7 -7 -7 -7 -7 -7 -6 -6 -6 -6 -6 -6 -6 -6 -6 -6 -6 -6 -6 -6 -6 -6 -6 -6 -6 -6 -6 -6 -6 -6 -5 -6 -6 -6 -6 -6 -6 -6 -6
-7 -6 -7 -7 -7 -6 -6 -6 -7 -7 -6 -6 -6 -6 -6 -6 -6 -6 -6 -6 -6 -6 -6 -6 -6 -6 -6 -6 -6 -6 -6 -6 -6 -6 -6 -6 -6 -6 -6 -6 -6 -6
-7 -6 -6 -7 -7 -6 -6 -6 -6 -6 -6 -6 -7 -7 -7 -7 -6 -6 -6 -7 -7 -7 -6 -6 -6 -6 -6 -6 -6 -6 -6 -6 -6 -6 -6 -6 -6 -6 -6 -6 -6 -6
-7 -7 -6 -6 -7 -7 -7 -7 -7 -6 -6 -6 -7 -7 -7 -7 -7 -7 -6 -7 -7 -7 -7 -6 -6 -6 -6 -6 -6 -6 -6 -6 -6 -6 -6 -6 -6 -6 -6 -7 -6 -6
-7 -7 -7 -7 -7 -7 -7 -7 -7 -7 -7 -7 -7 -7 -7 -7 -7 -7 -7 -7 -7 -7 -7 -7 -7 -7 -7 -7 -7 -6 -6 -6 -6 -7 -7 -7 -6 -6 -6 -7 -7 -7
-7 -7 -7 -7 -7 -7 -7 -7 -7 -7 -7 -7 -7 -7 -7 -7 -7 -7 -7 -7 -7 -7 -7 -7 -7 -7 -7 -7 -7 -7 -7 -7 -7 -7 -7 -7 -7 -6 -6 -6 -7 -7
-7 -7 -7 -7 -7 -7 -7 -7 -7 -7 -7 -7 -7 -7 -7 -7 -7 -7 -7 -7 -7 -7 -7 -7 -7 -7 -7 -7 -7 -7 -6 -7 -7 -7 -7 -7 -7 -7 -7 -7 -7 -7
-8 -8 -7 -7 -7 -7 -7 -7 -7 -7 -7 -7 -7 -7 -7 -7 -7 -7 -7 -8 -7 -7 -7 -7 -7 -7 -7 -7 -7 -7 -7 -7 -7 -7 -7 -7 -7 -7 -7 -7 -7 -7
-8 -8 -8 -8 -8 -8 -8 -8 -8 -8 -7 -7 -7 -7 -7 -7 -7 -7 -7 -7 -7 -7 -7 -7 -7 -7 -7 -7 -7 -7 -7 -7 -7 -7 -7 -7 -7 -7 -7 -7 -7 -7
Height
5957 5958 5959 5960 5961 5962 5963 5964 5965 5966 5967 5968 5969 5970 5970 5971 5972 5972 5973 5973 5974 5974 5975 5975 5976 5976 5977 5977 5977 5977 5977 5978 5978 5978 5978 5979 5979 5979 5979 5980 5980 5980
5956 5957 5958 5959 5961 5962 5963 5964 5965 5966 5967 5968 5968 5969 5970 5971 5972 5972 5973 5973 5974 5974 5974 5975 5976 5976 5977 5977 5977 5977 5978 5978 5978 5978 5978 5978 5979 5979 5979 5980 5980 5980
5956 5957 5958 5959 5960 5962 5963 5964 5964 5965 5966 5967 5968 5969 5970 5971 5971 5972 5973 5973 5974 5974 5974 5975 5975 5975 5976 5976 5977 5977 5978 5978 5978 5978 5979 5979 5979 5979 5979 5979 5980 5980
5956 5957 5958 5959 5960 5961 5962 5963 5964 5965 5966 5967 5968 5969 5969 5970 5971 5972 5972 5973 5973 5974 5974 5974 5974 5975 5975 5976 5976 5977 5977 5978 5978 5979 5979 5979 5979 5979 5979 5979 5979 5980
5955 5956 5957 5958 5959 5960 5961 5962 5963 5964 5965 5966 5967 5968 5969 5969 5970 5971 5972 5972 5973 5973 5974 5974 5974 5975 5975 5975 5976 5976 5977 5977 5978 5978 5979 5979 5979 5979 5979 5979 5979 5980
5953 5954 5955 5957 5957 5958 5959 5961 5962 5963 5964 5965 5966 5967 5968 5969 5970 5970 5971 5972 5972 5973 5973 5974 5974 5974 5974 5975 5975 5975 5976 5977 5977 5978 5978 5979 5979 5980 5980 5980 5980 5980
5951 5952 5954 5955 5956 5957 5958 5959 5960 5962 5963 5964 5965 5966 5967 5968 5969 5970 5970 5971 5972 5972 5972 5973 5974 5974 5974 5974 5975 5975 5975 5976 5976 5977 5978 5978 5979 5979 5979 5980 5980 5980
5950 5951 5953 5954 5955 5956 5957 5958 5959 5960 5961 5962 5963 5964 5966 5967 5967 5968 5969 5970 5970 5971 5971 5972 5972 5973 5973 5974 5974 5974 5974 5975 5975 5976 5976 5977 5977 5978 5978 5978 5979 5979
5948 5949 5951 5952 5953 5955 5956 5957 5958 5959 5960 5960 5962 5963 5964 5965 5966 5966 5967 5967 5968 5969 5970 5971 5971 5972 5972 5973 5973 5973 5973 5974 5974 5975 5975 5975 5976 5976 5977 5977 5977 5977
5946 5947 5948 5949 5951 5952 5954 5955 5957 5958 5958 5959 5960 5961 5962 5963 5964 5964 5965 5965 5966 5967 5968 5969 5969 5970 5971 5971 5972 5972 5972 5972 5973 5973 5974 5974 5974 5975 5975 5975 5976 5976
5945 5945 5946 5947 5948 5950 5952 5953 5955 5956 5956 5957 5958 5959 5960 5961 5962 5963 5963 5964 5964 5965 5965 5966 5967 5968 5969 5970 5970 5971 5971 5971 5971 5972 5972 5973 5973 5973 5974 5974 5974 5975
5943 5944 5944 5945 5947 5948 5950 5952 5953 5954 5955 5956 5956 5957 5958 5959 5960 5961 5962 5963 5963 5964 5964 5965 5965 5966 5966 5967 5968 5969 5969 5970 5970 5970 5971 5971 5972 5972 5972 5973 5973 5973
5940 5941 5942 5943 5945 5947 5949 5950 5952 5953 5954 5955 5956 5956 5957 5957 5958 5959 5960 5961 5962 5962 5963 5964 5964 5965 5965 5965 5966 5966 5967 5968 5968 5968 5969 5969 5970 5970 5970 5971 5971 5971
5938 5939 5940 5942 5943 5945 5947 5949 5950 5951 5952 5953 5955 5956 5956 5956 5957 5958 5959 5960 5961 5962 5962 5962 5963 5963 5963 5963 5964 5964 5964 5965 5966 5966 5967 5967 5968 5968 5968 5969 5969 5969
5936 5938 5939 5940 5941 5943 5944 5946 5947 5948 5950 5951 5952 5953 5954 5955 5956 5957 5958 5959 5960 5961 5961 5962 5962 5961 5961 5962 5962 5962 5962 5963 5963 5964 5965 5965 5966 5966 5966 5967 5967 5967
5933 5935 5937 5938 5939 5940 5941 5942 5944 5945 5947 5948 5949 5950 5951 5953 5954 5955 5956 5957 5958 5959 5960 5960 5961 5960 5960 5960 5961 5962 5962 5962 5962 5962 5962 5963 5964 5964 5965 5965 5965 5966
5930 5932 5934 5935 5936 5937 5938 5939 5941 5942 5944 5945 5946 5947 5948 5949 5950 5951 5952 5954 5955 5956 5957 5958 5958 5958 5958 5959 5960 5961 5961 5961 5961 5961 5961 5961 5961 5962 5963 5963 5964 5964
5927 5929 5930 5931 5932 5934 5935 5937 5939 5940 5942 5943 5944 5945 5945 5946 5947 5948 5949 5950 5951 5952 5953 5954 5955 5955 5956 5957 5958 5959 5960 5960 5960 5960 5959 5959 5959 5960 5960 5961 5961 5962
5924 5925 5926 5928 5930 5931 5933 5934 5936 5937 5939 5940 5941 5942 5943 5944 5945 5946 5946 5947 5948 5949 5950 5950 5951 5952 5954 5955 5956 5957 5958 5958 5958 5958 5958 5958 5957 5958 5958 5958 5959 5960
5920 5921 5923 5925 5927 5928 5929 5930 5932 5933 5935 5936 5937 5939 5940 5941 5942 5943 5943 5944 5945 5946 5947 5947 5947 5949 5951 5952 5953 5954 5955 5956 5956 5956 5956 5956 5956 5956 5956 5956 5957 5957
5916 5918 5920 5922 5923 5924 5925 5926 5928 5929 5931 5932 5933 5935 5936 5937 5938 5939 5940 5941 5942 5943 5943 5944 5945 5946 5947 5948 5949 5950 5952 5953 5953 5953 5953 5953 5953 5953 5953 5954 5954 5955
5913 5915 5917 5919 5920 5920 5921 5923 5924 5926 5927 5928 5930 5931 5933 5934 5935 5935 5936 5937 5939 5940 5940 5940 5941 5943 5944 5944 5945 5946 5948 5949 5950 5950 5950 5950 5950 5950 5950 5950 5951 5952
5908 5910 5912 5914 5915 5916 5917 5918 5920 5921 5922 5924 5926 5927 5928 5930 5930 5931 5932 5933 5935 5936 5936 5936 5937 5938 5939 5940 5941 5942 5944 5945 5946 5947 5947 5947 5947 5946 5946 5947 5947 5948
5902 5905 5907 5908 5909 5911 5912 5914 5915 5917 5919 5920 5922 5923 5924 5925 5926 5927 5928 5930 5931 5932 5932 5933 5934 5935 5935 5936 5937 5938 5940 5941 5942 5943 5943 5944 5944 5943 5943 5942 5943 5944
5898 5901 5903 5904 5905 5906 5908 5909 5911 5913 5914 5916 5917 5918 5920 5920 5921 5923 5924 5926 5927 5928 5928 5929 5930 5931 5931 5932 5933 5934 5935 5936 5937 5938 5939 5939 5939 5939 5939 5938 5939 5939
5896 5898 5900 5902 5902 5903 5904 5905 5907 5909 5911 5912 5913 5914 5915 5916 5917 5918 5920 5921 5922 5923 5924 5925 5926 5927 5927 5928 5928 5929 5930 5932 5933 5933 5934 5934 5935 5935 5935 5935 5935 5935
Wind_Speed
11 11 11 12 12 12 12 13 13 14 14 15 17 17 17 16 15 15 14 13 12 11 10 10 9 8 8 8 7 7 6 5 5 5 5 5 5 6 7 8 8 8
13 13 12 12 12 12 13 13 13 13 14 15 15 16 15 15 14 14 13 12 12 11 10 10 9 8 8 8 7 7 6 5 5 5 5 6 6 7 7 7 7 7
15 14 14 13 13 13 13 13 13 13 14 14 14 14 14 14 13 12 12 12 11 11 10 9 8 8 7 7 6 6 5 5 5 5 5 6 6 6 7 7 7 7
17 16 15 15 15 14 14 13 13 13 13 13 13 13 13 13 12 12 12 11 11 10 9 8 8 7 6 6 6 5 5 4 4 4 4 5 5 5 6 6 7 7
18 17 16 16 16 16 15 15 14 14 14 14 14 14 13 13 12 12 12 11 11 10 9 8 8 8 7 6 6 6 5 5 5 5 4 4 4 4 4 5 5 6
19 18 18 18 18 17 17 16 16 16 15 15 15 14 14 13 13 12 12 11 11 10 10 9 9 9 8 8 7 7 7 6 6 6 6 5 5 5 4 4 4 5
20 19 19 18 18 19 18 18 17 17 17 16 16 15 15 14 13 13 12 12 12 11 11 11 11 10 10 9 9 9 8 8 8 8 7 7 7 7 7 6 6 5
20 20 19 19 19 19 19 19 19 18 18 18 17 16 16 15 14 14 14 13 13 13 13 13 13 12 12 12 11 11 11 10 11 10 10 10 10 9 9 9 9 8
20 20 20 20 20 20 19 20 20 19 19 18 18 17 17 16 16 15 15 15 15 16 16 15 15 15 14 14 14 13 13 13 12 12 12 12 11 11 11 11 11 10
22 22 22 22 23 22 21 21 21 20 20 20 19 18 17 16 16 16 16 17 17 17 17 17 16 15 15 15 14 14 14 14 14 13 13 13 12 12 12 12 11 10
24 24 25 25 26 25 24 23 22 22 22 22 21 21 19 18 17 16 16 16 17 17 17 16 15 15 14 14 14 14 15 15 15 15 14 14 13 13 12 12 11 10
26 26 27 27 27 26 26 25 24 23 23 23 23 23 22 20 19 18 17 16 16 16 16 15 15 14 14 14 14 14 15 15 16 16 16 16 15 14 14 13 13 11
28 28 28 28 27 27 26 25 25 24 24 24 24 24 23 22 21 20 19 17 16 16 16 16 15 15 15 15 15 15 15 15 16 16 17 17 17 16 16 16 15 14
30 29 28 27 27 26 26 26 26 26 26 25 24 24 24 23 23 22 21 19 18 18 17 17 17 17 17 17 17 16 16 15 15 16 17 17 17 17 17 18 18 17
30 29 28 27 26 26 26 26 26 27 26 26 25 25 24 24 23 23 22 22 21 20 19 19 18 19 19 19 19 18 17 16 16 16 16 17 17 17 18 19 19 19
32 30 28 27 26 27 27 27 27 27 27 27 26 26 26 25 25 25 24 24 23 23 22 21 20 21 21 21 20 20 19 18 16 16 15 16 16 17 18 19 19 19
32 31 30 29 29 29 28 28 27 27 28 28 27 27 27 27 27 27 26 26 25 25 24 24 23 23 23 23 22 21 21 20 18 17 16 16 16 17 17 18 19 20
33 32 31 31 31 31 30 29 28 28 28 28 28 28 28 29 29 28 28 27 27 26 26 26 26 26 26 25 24 23 23 22 21 19 18 17 17 17 18 18 19 20
33 33 33 33 33 32 31 30 29 29 29 29 28 29 29 29 29 29 29 28 28 28 28 28 28 29 28 27 26 25 24 23 23 22 20 19 19 19 19 20 20 20
33 33 33 33 34 34 34 33 32 31 31 31 31 31 31 31 30 30 30 29 29 29 29 30 30 29 29 29 28 27 26 25 25 24 23 22 21 21 21 22 22 21
35 34 33 33 34 35 36 35 34 34 34 34 34 34 33 33 32 32 32 31 30 30 30 31 31 30 30 30 30 29 29 28 27 26 26 25 24 24 23 24 24 24
37 36 35 34 35 37 38 37 36 36 37 37 37 36 35 36 36 35 34 33 31 31 32 33 32 32 31 31 31 31 31 30 30 29 28 28 27 26 26 26 27 27
40 40 39 38 39 40 40 39 38 38 38 39 39 38 36 37 37 37 36 35 34 33 34 34 34 34 33 32 32 32 32 32 32 31 31 30 30 29 28 28 28 29
32 36 37 37 39 40 41 41 40 39 39 39 38 37 36 35 35 35 35 35 35 35 35 35 35 35 36 35 34 33 33 34 34 33 33 32 32 31 30 30 30 30
20 23 25 26 27 29 33 35 36 36 35 33 29 28 30 33 35 35 35 36 36 37 37 36 36 36 37 36 36 36 36 35 36 36 35 34 34 33 32 31 31 31
17 16 17 19 20 20 22 23 24 26 27 25 22 21 22 26 29 30 32 34 36 37 38 38 37 37 36 36 37 38 38 38 38 38 37 37 36 34 34 33 32 32
Wind_Direction
184 191 191 188 189 191 191 191 193 196 200 204 208 210 213 215 216 216 216 215 214 213 213 215 218 220 224 230 232 232 232 225 219 215 210 205 197 192 194 197 198 197
189 191 195 196 196 196 197 196 196 198 202 205 208 210 213 216 218 218 218 217 217 217 218 219 222 225 229 234 236 234 231 225 219 213 208 204 198 192 191 195 202 202
194 193 194 197 199 201 202 201 200 202 205 207 209 210 212 215 217 217 217 217 218 219 221 222 223 224 226 230 234 234 230 224 220 213 206 204 202 196 191 193 199 203
199 196 195 196 197 201 205 205 206 207 208 211 213 214 215 215 216 217 216 218 220 221 221 221 220 219 219 221 226 230 229 224 221 218 213 210 210 205 197 195 198 201
201 201 199 199 198 199 203 206 209 211 212 215 216 217 218 219 220 220 219 219 221 223 222 220 218 219 216 215 217 222 225 227 223 224 226 226 225 224 217 209 206 206
204 205 204 203 202 201 202 205 209 211 213 216 218 220 221 222 223 225 226 225 225 226 226 225 224 226 226 225 225 225 227 233 234 233 235 240 245 247 247 242 232 226
208 209 208 209 209 208 206 206 208 210 212 216 218 220 222 223 224 228 232 233 233 234 235 235 234 235 236 238 239 240 240 243 246 246 246 247 252 257 261 262 259 253
214 213 213 214 215 215 214 212 211 210 212 217 219 221 222 224 225 227 231 236 239 240 241 243 243 243 243 244 247 249 250 252 254 255 254 253 253 256 259 262 262 260
218 218 217 217 219 220 220 219 218 215 214 217 220 223 225 226 226 227 230 233 237 240 242 245 247 249 249 249 250 251 252 253 255 256 257 258 257 257 256 258 258 256
218 218 217 217 219 220 221 222 222 221 220 220 220 223 226 228 230 230 230 232 233 235 238 241 245 247 250 251 252 253 253 252 252 253 254 256 257 258 257 257 257 254
220 219 219 218 218 219 220 222 223 223 223 222 222 223 225 228 232 235 235 234 232 232 233 235 237 241 245 249 252 255 256 256 255 254 253 253 253 255 257 258 259 258
221 221 222 222 221 221 221 222 224 226 226 226 225 224 224 226 230 234 237 236 233 232 232 232 233 236 240 244 249 253 256 258 258 258 257 254 252 252 253 256 257 258
222 221 222 224 224 225 225 225 226 228 230 231 230 229 227 226 227 230 235 236 233 231 231 232 235 238 240 242 243 247 251 255 257 258 258 256 254 252 252 253 253 254
226 224 223 224 225 227 228 229 229 230 232 233 234 235 234 232 230 230 233 236 237 234 232 232 234 238 242 243 242 242 244 248 251 254 255 255 254 253 252 251 251 251
229 228 227 227 228 228 229 230 231 232 233 234 235 236 238 238 237 235 235 238 241 241 240 239 238 241 244 246 246 246 245 245 248 250 252 253 254 254 253 252 252 252
229 230 230 230 230 231 231 231 232 233 233 234 234 236 237 239 240 240 239 240 243 245 246 246 246 247 250 252 254 255 254 252 251 252 254 256 257 257 256 255 254 254
228 229 230 231 231 232 233 234 234 235 236 235 235 235 236 237 239 240 241 241 243 246 249 251 252 252 254 256 259 261 262 261 259 257 257 258 260 260 260 259 257 256
227 228 229 231 232 233 234 235 236 238 240 240 239 239 238 238 238 240 241 242 243 245 248 251 253 253 254 256 258 261 264 266 265 263 261 260 262 263 264 263 261 259
228 228 228 230 233 234 235 235 236 238 240 241 242 243 243 242 241 241 242 243 244 245 246 247 250 252 254 255 256 258 261 264 266 266 264 262 261 262 264 265 265 264
228 228 227 229 231 234 235 235 236 237 239 240 242 243 244 244 244 243 242 242 244 246 246 246 248 250 253 255 256 257 258 259 261 263 263 263 262 262 263 264 265 266
228 229 229 229 231 232 233 234 235 237 239 240 241 242 243 244 244 244 244 243 243 245 248 248 248 249 251 253 255 256 256 256 257 258 259 260 261 261 262 263 265 267
231 231 232 232 233 234 233 234 236 238 239 240 241 242 243 245 245 244 244 243 242 244 246 248 249 249 250 251 253 255 256 256 256 256 256 257 257 258 260 262 264 266
234 234 234 234 235 235 234 233 235 238 239 241 241 240 240 242 244 243 242 243 244 245 246 249 250 251 250 250 250 252 254 256 256 256 256 256 256 257 258 259 261 263
230 231 232 233 234 234 233 234 236 238 241 242 241 241 242 242 243 242 242 244 246 247 249 252 254 254 253 251 250 251 252 254 255 255 255 255 255 255 256 257 259 261
219 220 224 227 229 229 229 231 232 233 236 236 234 237 243 244 243 243 244 245 247 248 249 252 254 255 255 253 252 252 252 253 254 254 254 254 254 253 253 255 257 259
227 225 226 228 231 230 229 229 228 228 233 236 234 235 238 238 237 239 242 243 245 247 249 251 252 252 252 253 254 255 255 254 255 255 255 255 255 255 254 254 255 257